Hourly Data Report for February 12, 2017

All times are specified in Local Standard Time (LST). Add 1 hour to adjust for Daylight Saving Time where and when it is observed.

TORONTO CITY
ONTARIO

43°40'00.000" N
79°24'00.000" W
112.50 m
6158355
71508
XTO

Download Data

Hourly Data (February 2017)
Hourly Data Report for February 12, 2017
TIME Temp Definition
°C
Dew Point Definition
°C
Rel Hum Definition
%
Wind Dir Definition
10's deg

Wind Spd Definition
km/h
Visibility Definition
km
Stn Press Definition
kPa
Hmdx Definition


Wind Chill Definition


Weather Definition


00:00 1.2 -0.8 87 LegendMM LegendMM   100.35     LegendNANA
01:00 0.3 -1.6 87 LegendMM LegendMM   100.36     LegendNANA
02:00 -0.6 -2.2 89 LegendMM LegendMM   100.31     LegendNANA
03:00 -1.2 -2.5 91 LegendMM LegendMM   100.23     LegendNANA
04:00 -2.0 -3.1 92 LegendMM LegendMM   100.22     LegendNANA
05:00 -2.2 -3.1 93 LegendMM LegendMM   100.08     LegendNANA
06:00 -3.5 -4.7 92 LegendMM LegendMM   99.95     LegendNANA
07:00 -3.5 -4.6 92 LegendMM LegendMM   99.88     LegendNANA
08:00 -3.1 -4.3 92 LegendMM LegendMM   99.79     LegendNANA
09:00 -3.1 -4.3 91 LegendMM LegendMM   99.68     LegendNANA
10:00 -3.5 -4.8 91 LegendMM LegendMM   99.59     LegendNANA
11:00 -3.5 -4.5 93 LegendMM LegendMM   99.47     LegendNANA
12:00 -2.9 -3.9 93 LegendMM LegendMM   99.46     LegendNANA
13:00 -2.0 -3.0 92 LegendMM LegendMM   99.37     LegendNANA
14:00 -1.1 -2.5 90 LegendMM LegendMM   99.25     LegendNANA
15:00 -0.7 -2.7 86 LegendMM LegendMM   99.15     LegendNANA
16:00 -0.8 -2.6 87 LegendMM LegendMM   99.16     LegendNANA
17:00 -0.8 -1.7 94 LegendMM LegendMM   99.13     LegendNANA
18:00 0.3 -0.3 96 LegendMM LegendMM   99.09     LegendNANA
19:00 1.2 0.4 94 LegendMM LegendMM   99.06     LegendNANA
20:00 2.0 -0.4 84 LegendMM LegendMM   99.10     LegendNANA
21:00 0.8 -3.0 76 LegendMM LegendMM   99.21     LegendNANA
22:00 0.1 -3.3 78 LegendMM LegendMM   99.34     LegendNANA
23:00 -0.9 -4.9 75 LegendMM LegendMM   99.44     LegendNANA

Notes on Data Quality.

Legend

  • E = Estimated
  • M = Missing
  • NA = Not Available
Date modified: